Orbital Elements at Epoch 2459200.5 (2020-Dec-17.0) TDB
Reference: JPL 28 (heliocentric ecliptic J2000)
Element | Value | Uncertainty (1-sigma) | Units |
e | .1154917720307037 | 4.5893e-08 | |
a | 2.667540810192419 | 1.2435e-08 | au |
q | 2.359461795059077 | 1.227e-07 | au |
i | 11.78510957995092 | 4.0612e-06 | deg |
node | 286.9434701533736 | 2.092e-05 | deg |
peri | 222.5548711852658 | 2.5433e-05 | deg |
M | 213.6356895614733 | 1.6062e-05 | deg |
tp | 2459847.490234525267 (2022-Sep-24.99023453) | 7.3063e-05 | TDB |
period | 1591.34753363882 4.36 | 1.1127e-05 3.046e-08 | d yr |
n | .2262233688054386 | 1.5818e-09 | deg/d |
Q | 2.975619825325761 | 1.3871e-08 | au |
|
| | Orbit Determination Parameters
Additional Information
|